Regional Weather Roundup
Issued by NWS

Home | Current Version | Previous Version | Graphics & Text | Print | Product List | Glossary On
Versions: 1 2 3 4 5 6 7 8 9 10 11 12 13 14 15 16 17 18 19 20 21 22 23 24 25 26 27 28 29 30 31
000
ASUS43 KDMX 300807
RWRIA

WEATHER ROUNDUP FOR IOWA
NATIONAL WEATHER SERVICE DES MOINES IA
300 AM CDT THU OCT 30 2014

NOTE: "FAIR" INDICATES FEW OR NO CLOUDS BELOW 12,000 FEET WITH NO
SIGNIFICANT WEATHER AND/OR OBSTRUCTIONS TO VISIBILITY.

* - THESE STATIONS ARE NOT NWS STATIONS...THUS NOT UNDER NWS
QUALITY CONTROL.  THEY ALSO DO NOT REPORT WEATHER SUCH
AS PRECIPITATION OR FOG.

IAZ001>003-012>014-020>022-031>034-043>046-300900-
   NORTHWEST IOWA

CITY           SKY/WX    TMP DP  RH WIND       PRES   REMARKS
CARROLL *      CLOUDY    41  37  87 SE5       30.04F
CHEROKEE *     CLOUDY    46  36  66 S5        29.99F
DENISON *      CLOUDY    43  37  81 NE6       30.01F
LE MARS *      CLOUDY    48  34  57 S7        29.99S
ORANGE CITY *  MOCLDY    48  32  53 S6        29.98F
SHELDON *      CLOUDY    43  34  70 SE6       29.98F
SIOUX CITY     CLOUDY    46  34  62 SE6       29.99S
SPENCER        CLOUDY    44  34  67 CALM      30.02F
STORM LAKE *   CLOUDY    45  34  65 S9        30.02F
$$

IAZ055>058-069>071-079>083-090>094-300900-
   SOUTHWEST IOWA

CITY           SKY/WX    TMP DP  RH WIND       PRES   REMARKS
ATLANTIC *     CLOUDY    45  34  65 SW5       30.03F
AUDUBON *      CLOUDY    39  34  81 CALM      30.04F
CLARINDA *     CLOUDY    46  34  61 SE3       30.05F
COUNCIL BLFS * CLOUDY    45  34  65 SE8       30.00S
CRESTON *      PTCLDY    39  34  81 SE8       30.06F WCI  34
HARLAN  *      CLOUDY    41  37  87 SW3       30.05F
LAMONI         MOCLDY    42  33  70 SE9       30.07F
RED OAK *      CLOUDY    46  34  61 VRB5      30.02F
SHENANDOAH *     N/A     46  36  66 E7        30.02F
$$

IAZ047>049-059>061-072>074-084-300900-
   CENTRAL IOWA

CITY           SKY/WX    TMP DP  RH WIND       PRES   REMARKS
AMES           PTCLDY    37  33  85 CALM      30.08S
ANKENY *       PTCLDY    37  34  87 CALM      30.08S
CHARITON *     CLOUDY    39  36  87 SE6       30.08F WCI  35
DES MOINES     MOCLDY    42  33  70 SE7       30.08F
GRINNELL*      PTCLDY    37  34  87 SE6       30.09F WCI  33
KNOXVILLE *    CLOUDY    39  34  81 SE7       30.07F WCI  34
MARSHALLTOWN   PTCLDY    36  33  89 SE6       30.08S WCI  31
PELLA *        PTCLDY    39  34  81 SE6       30.11S WCI  35
PERRY *        MOCLDY    39  36  87 CALM      30.06S
$$

IAZ004>006-015-016-023>025-035-036-300900-
   NORTH CENTRAL IOWA

CITY           SKY/WX    TMP DP  RH WIND       PRES   REMARKS
ALGONA *       CLOUDY    43  36  75 S7        30.05S
CLARION *      MIX PCPN  41  37  87 S8        30.07R
ESTHERVILLE    CLOUDY    42  32  67 S3        30.02F
FORT DODGE *   CLOUDY    41  36  81 S5        30.08S
MASON CITY     CLOUDY    34  32  92 S5        30.07F WCI  30
FOREST CITY *  CLOUDY    36  36 100 CALM      30.06S
IOWA FALLS *   MOCLDY    37  34  87 CALM      30.09R
$$

IAZ007>011-017>019-026>030-037>042-050>054-066-300900-
   NORTHEAST IOWA

CITY           SKY/WX    TMP DP  RH WIND       PRES   REMARKS
CEDAR RAPIDS   PTCLDY    32  32 100 SE3       30.10F
CHARLES CITY * CLOUDY    37  32  81 SE6       30.08F WCI  33
CLINTON *      CLEAR     30  25  80 CALM      30.15F
DECORAH *      MOCLDY    36  32  87 CALM      30.08F
DUBUQUE        PTCLDY    33  30  88 CALM      30.12S
MONTICELLO *   CLEAR     30  30 100 CALM      30.12S
OELWEIN *      PTCLDY    34  32  93 SE6       30.10F WCI  29
WATERLOO       PTCLDY    32  30  92 E5        30.08F WCI  27
$$

IAZ064-065-067-068-078-300900-
   EAST CENTRAL IOWA

CITY           SKY/WX    TMP DP  RH WIND       PRES   REMARKS
DAVENPORT      CLEAR     32  27  81 SE3       30.13F
IOWA CITY      PTCLDY    34  33  96 CALM      30.13F
MT. PLEASANT * CLEAR     32  32 100 SE3       30.13F
MUSCATINE *    CLEAR     32  28  86 CALM      30.14F
QUAD CITIES    CLEAR     30  27  88 CALM      30.14S
$$

IAZ062-063-075>077-085>089-095>099-300900-
   SOUTHEAST IOWA

CITY           SKY/WX    TMP DP  RH WIND       PRES   REMARKS
BURLINGTON     CLEAR     34  33  96 CALM      30.13F
FAIRFIELD *    PTCLDY    36  30  80 SE6       30.12S WCI  31
FORT MADISON * CLEAR     39  36  87 CALM      30.13F
KEOKUK *       CLEAR     37  37 100 CALM      30.12F
OSKALOOSA *      N/A     36  32  87 SE7       30.10F WCI  30
CENTERVILLE *  MOCLDY    37  36  93 SE5       30.11S WCI  34
OTTUMWA        PTCLDY    37  32  82 SE7       30.10F WCI  32
WASHINGTON *   CLEAR     34  34 100 S6        30.12F WCI  29
$$

ABBREVIATIONS USED IN REMARKS
   TC - TEMPERATURES IN CELSIUS
  WCI - WIND CHILL INDEX
   HX - HEAT INDEX
  VSB - VISIBILITY
$$




USA.gov is the U.S. government's official web portal to all federal, state and local government web resources and services.